YO8RXT-3 Weather Reports


Display with metric or nautical units.
time (UTC)temp
F
wind
direction
speed
MPH
gust
MPH
rain 1hr
in
rain 24hr
in
rain mn
in
humidity
%
barometer
mb
20260901003503 70 110 9.0 0.0 0.00 0.00 0.00 43 1016.0
20260901000503 70 110 8.0 0.0 0.00 0.00 0.00 43 1016.0
20260831233502 72 130 8.0 0.0 0.00 0.00 0.00 41 1016.0
20260831230502 75 170 8.0 0.0 0.00 0.00 0.00 36 1016.0
20260831223502 75 150 8.0 0.0 0.00 0.00 0.00 39 1016.0
20260831220504 75 170 10.0 0.0 0.00 0.00 0.00 39 1017.0
20260831213502 75 150 8.0 0.0 0.00 0.00 0.00 39 1017.0
20260831210502 75 150 8.0 0.0 0.00 0.00 0.00 41 1017.0
20260831203502 75 150 6.0 0.0 0.00 0.00 0.00 41 1016.0
20260831200502 75 150 9.0 0.0 0.00 0.00 0.00 39 1016.0
20260831193503 79 120 7.0 0.0 0.00 0.00 0.00 34 1016.0
20260831190503 77 110 5.0 0.0 0.00 0.00 0.00 36 1016.0
20260831183503 79 110 6.0 0.0 0.00 0.00 0.00 34 1016.0
20260831180502 79 140 5.0 0.0 0.00 0.00 0.00 34 1016.0
20260831173502 81 150 9.0 0.0 0.00 0.00 0.00 32 1015.0
20260831170503 81 140 8.0 0.0 0.00 0.00 0.00 34 1015.0
20260831163502 82 150 9.0 0.0 0.00 0.00 0.00 32 1015.0
20260831160502 84 150 9.0 0.0 0.00 0.00 0.00 31 1015.0
20260831153502 86 160 9.0 0.0 0.00 0.00 0.00 29 1015.0
20260831150502 88 160 10.0 0.0 0.00 0.00 0.00 27 1015.0
20260831143502 88 170 9.0 0.0 0.00 0.00 0.00 27 1015.0
20260831140501 88 150 10.0 0.0 0.00 0.00 0.00 27 1015.0
20260831133502 90 140 10.0 0.0 0.00 0.00 0.00 27 1016.0
20260831130502 88 160 8.0 0.0 0.00 0.00 0.00 29 1016.0
20260831123502 90 190 6.0 0.0 0.00 0.00 0.00 27 1016.0
20260831120502 88 150 10.0 0.0 0.00 0.00 0.00 29 1016.0
20260831113502 88 180 8.0 0.0 0.00 0.00 0.00 29 1016.0
20260831110503 88 150 10.0 0.0 0.00 0.00 0.00 29 1017.0
20260831103502 88 150 9.0 0.0 0.00 0.00 0.00 31 1017.0
20260831100502 86 180 7.0 0.0 0.00 0.00 0.00 31 1017.0
20260831093502 86 160 9.0 0.0 0.00 0.00 0.00 33 1017.0
20260831090502 84 180 9.0 0.0 0.00 0.00 0.00 33 1018.0
20260831083502 82 160 8.0 0.0 0.00 0.00 0.00 35 1018.0
20260831080502 81 170 7.0 0.0 0.00 0.00 0.00 37 1018.0
20260831073502 79 130 7.0 0.0 0.00 0.00 0.00 42 1018.0
20260831070501 75 120 7.0 0.0 0.00 0.00 0.00 47 1018.0
20260831063502 73 120 8.0 0.0 0.00 0.00 0.00 47 1018.0
20260831060502 72 120 9.0 0.0 0.00 0.00 0.00 50 1018.0
20260831053502 70 100 9.0 0.0 0.00 0.00 0.00 53 1018.0
20260831050503 66 90 7.0 0.0 0.00 0.00 0.00 60 1018.0
20260831043502 64 90 7.0 0.0 0.00 0.00 0.00 64 1018.0
20260831040502 64 80 8.0 0.0 0.00 0.00 0.00 64 1018.0
20260831033502 66 80 6.0 0.0 0.00 0.00 0.00 56 1017.0
20260831030502 66 80 6.0 0.0 0.00 0.00 0.00 56 1017.0
20260831023503 66 80 5.0 0.0 0.00 0.00 0.00 56 1018.0
20260831020503 68 80 7.0 0.0 0.00 0.00 0.00 53 1018.0
20260831013501 68 80 6.0 0.0 0.00 0.00 0.00 53 1018.0
20260831010502 70 2.0 0.0 0.00 0.00 0.00 50 1018.0